Home   Weather   Bad Salzuflen   Past weeks

Flag for Germany Past Weather in Bad Salzuflen, North Rhine-Westphalia, Germany — Yesterday and Last 2 Weeks

54 °F


Feels Like: 51 °F
Forecast: 44 / 52 °F
Wind: 8 mph from West

Location: Bueckeburg

Current Time: Oct 28, 2016 at 9:41:44 PM

Latest Report: Oct 28, 2016 at 8:20 PM

Visibility: 3 mi

Pressure: 30.45 "Hg

Humidity: 100%

Dew Point: 54 °F

Location of Bad SalzuflenLocation

Past Weather in Bad Salzuflen — Graph


Bad Salzuflen Temperature Yesterday

Maximum temperature yesterday: 55 °F (at 4:50 PM)
Minimum temperature yesterday: 48 °F (at 12:00 AM)
Average temperature yesterday: 51 °F

High & Low Weather Summary for the Past Weeks

High63 °F (Oct 16, 3:20 PM)100% (Oct 16, 4:20 AM)30.45 "Hg (Oct 16, 4:20 AM)
Low34 °F (Oct 23, 8:20 AM)59% (Oct 16, 3:20 PM)29.71 "Hg (Oct 15, 5:20 AM)
Average48 °F91%30.07 "Hg
* Reported Oct 13 8:20 PM — Oct 28 8:20 PM, Bad Salzuflen, Weather by CustomWeather, © 2016

Note: Actual official high and low records may vary slightly from our data, if they occured in-between our weather recording intervals... More about our weather records


Bad Salzuflen Weather History for the Previous 24 Hours

Scroll right to see more
Time TempWeatherWind HumidityBarometerVisibility
8:20 PM
Fri, Oct 28
54 °FCool.8 mph100%30.45 "Hg3 mi
7:20 PM55 °FDrizzle. Fog.8 mph94%30.45 "Hg2 mi
6:20 PM55 °FDrizzle. Fog.14 mph94%30.42 "Hg2 mi
6:02 PM55 °FDrizzle. Fog.14 mph94%30.42 "Hg1 mi
5:20 PM55 °FDrizzle. Fog.14 mph94%30.42 "Hg3 mi
4:20 PM55 °FDrizzle. Fog.13 mph94%30.42 "Hg2 mi
3:20 PM55 °FFog.13 mph94%30.42 "Hg3 mi
2:20 PM55 °FFog.16 mph88%30.39 "Hg3 mi
1:20 PM54 °FDrizzle. Fog.15 mph94%30.42 "Hg3 mi
12:20 PM54 °FDrizzle. Fog.14 mph94%30.39 "Hg3 mi
11:20 AM55 °FMostly cloudy.16 mph88%30.39 "Hg6 mi
10:20 AM55 °FPartly sunny.16 mph82%30.39 "Hg6 mi
9:48 AM54 °FBroken clouds.16 mph88%30.36 "HgN/A
9:20 AM54 °FMore clouds than sun.15 mph88%30.39 "Hg6 mi
8:20 AM54 °FMore clouds than sun.14 mph88%30.36 "Hg5 mi
6:20 AM54 °FDrizzle. Mostly cloudy.16 mph88%30.36 "Hg4 mi
5:20 AM54 °FPassing clouds.13 mph88%30.39 "Hg6 mi
4:20 AM54 °FPassing clouds.15 mph82%30.39 "Hg4 mi
3:20 AM52 °FPassing clouds.13 mph88%30.39 "Hg4 mi
2:20 AM52 °FPartly cloudy.13 mph88%30.42 "Hg4 mi
1:20 AM54 °FPassing clouds.13 mph88%30.42 "Hg4 mi
12:20 AM52 °FPartly cloudy.12 mph88%30.42 "Hg4 mi
11:20 PM
Thu, Oct 27
54 °FPassing clouds.14 mph82%30.42 "Hg4 mi
10:20 PM52 °FFog.10 mph88%30.42 "Hg3 mi
9:20 PM52 °FFog.8 mph88%30.42 "Hg3 mi
Weather by CustomWeather, © 2016

See weather overviewHow to use our weather pages